Date,TemperatureHighF,TemperatureAvgF,TemperatureLowF,DewpointHighF,DewpointAvgF,DewpointLowF,HumidityHigh,HumidityAvg,HumidityLow,PressureMaxIn,PressureMinIn,WindSpeedMaxMPH,WindSpeedAvgMPH,GustSpeedMaxMPH,PrecipitationSumIn
2013-6-1,79.9,69.9,62.2,56.8,40.3,15.6,72,41,10,29.44,29.28,20,6,20,0.00
2013-6-2,66.2,63.1,61.2,45.7,36.0,24.7,54,37,22,29.60,29.43,12,4,12,0.00
2013-6-3,70.2,61.7,52.0,41.8,25.6,7.3,59,31,10,29.70,29.58,5,2,5,0.00
2013-6-4,76.1,64.9,52.3,40.6,28.8,12.6,61,32,10,29.68,29.58,11,3,11,0.00
2013-6-5,81.1,67.0,54.5,49.1,36.2,17.0,63,39,10,29.61,29.45,4,1,4,0.00
2013-6-6,66.2,63.5,62.2,47.3,46.4,45.0,58,54,47,29.47,29.43,2,1,2,0.00
2013-6-7,76.8,74.5,73.0,21.1,15.9,13.6,14,11,10,29.49,29.46,7,4,7,0.00
2013-6-8,80.6,68.2,52.9,45.9,29.0,15.0,59,31,10,29.54,29.47,6,2,6,0.00
2013-6-9,76.1,67.5,61.5,50.9,41.0,33.3,54,39,22,29.50,29.36,8,3,8,0.12
2013-6-10,81.0,69.0,62.2,51.7,42.5,25.0,63,43,13,29.48,29.33,7,2,7,0.02
2013-6-11,91.0,73.4,57.6,57.1,44.3,26.6,64,41,10,29.51,29.40,10,2,10,0.00
2013-6-12,96.3,82.9,68.4,65.1,44.4,27.3,68,34,10,29.49,29.24,21,6,21,0.00
2013-6-13,78.6,70.1,67.6,48.5,43.7,33.8,50,40,23,29.39,29.32,15,7,15,0.00
2013-6-14,84.9,72.0,60.6,47.4,33.4,16.2,54,29,10,29.69,29.50,9,3,9,0.00
2013-6-15,86.2,73.5,66.6,58.0,50.3,37.7,70,47,18,29.66,29.46,18,4,18,2.20
2013-6-16,69.6,67.5,66.4,62.5,59.7,57.7,79,76,71,29.57,29.50,4,1,4,0.00
2013-6-17,88.7,76.4,64.8,64.3,49.0,25.1,72,45,10,29.55,29.48,5,2,5,0.00
2013-6-18,88.0,75.4,66.2,54.7,42.5,23.5,59,36,10,29.59,29.48,7,2,7,0.00
2013-6-19,68.5,63.8,60.6,41.5,39.7,37.6,49,41,34,29.62,29.59,4,1,4,0.00
2013-6-20,92.1,78.6,61.7,54.6,38.4,24.2,64,31,10,29.69,29.59,8,3,8,0.00
2013-6-21,94.5,82.3,72.3,54.0,45.5,29.1,51,31,10,29.64,29.52,11,3,11,0.00
2013-6-22,93.2,79.6,72.7,57.1,52.2,40.6,47,39,17,29.64,29.53,14,3,14,0.00
2013-6-23,91.8,79.1,69.4,55.2,44.9,23.0,59,32,10,29.60,29.52,14,4,14,0.00
2013-6-24,93.0,78.1,68.5,56.5,51.0,35.4,62,42,17,29.63,29.44,11,4,11,0.00
2013-6-25,93.2,84.9,70.9,60.4,50.0,40.7,65,33,18,29.51,29.38,10,4,10,0.00
2013-6-26,90.1,82.0,73.2,61.4,57.8,53.7,64,45,30,29.41,29.30,7,2,7,0.00
2013-6-27,95.5,82.2,72.7,63.4,47.2,25.5,65,36,10,29.47,29.37,8,3,8,0.00
2013-6-28,88.7,78.5,69.3,52.3,35.4,16.3,54,27,10,29.42,29.28,15,4,15,0.00
2013-6-29,83.1,72.6,66.6,47.3,39.7,20.2,48,31,10,29.29,29.24,14,4,14,0.00
2013-6-30,79.0,70.4,62.4,50.6,40.0,17.3,64,37,10,29.55,29.36,9,3,9,0.00